Preview of NWS' New Version of Forecast
This preview is not operational and should not be used for support decisions.

Regional Weather Roundup (RWR)

Issued by National Weather Service (NWS)

                            
000
ASUS43 KBIS 201910
RWRND 

NORTH DAKOTA REGIONAL WEATHER ROUNDUP
NATIONAL WEATHER SERVICE BISMARCK ND
200 PM CDT TUE AUG 20 2019

NOTE: "FAIR" INDICATES FEW OR NO CLOUDS BELOW 12,000 FEET WITH NO
SIGNIFICANT WEATHER AND/OR OBSTRUCTIONS TO VISIBILITY.


NDZ001>003-009>011-017-202000-
NORTHWEST NORTH DAKOTA
  
CITY           SKY/WX    TMP DP  RH WIND       PRES   REMARKS
WILLISTON      FAIR      72  46  39 MISG      30.20F                  
MINOT          FAIR      71  46  40 N10       30.15S                  
MINOT AFB      FAIR      70  46  41 N9        30.14R                  
$$
 
NDZ018>021-031>035-040>046-202000-
SOUTHWEST NORTH DAKOTA
  
CITY           SKY/WX    TMP DP  RH WIND       PRES   REMARKS
BISMARCK       FAIR      73  51  46 NE12      30.14S                  
DICKINSON      FAIR      74  49  41 NE12G20   30.17S                  
GARRISON         N/A     70  49  47 VRB3      30.16S                  
HETTINGER ARPT FAIR      73  54  51 NE15G22   30.18S                  
$$
 
NDZ004>008-012>016-024-026-027-054-202000-
NORTHEAST NORTH DAKOTA
  
CITY           SKY/WX    TMP DP  RH WIND       PRES   REMARKS
GRAND FORKS    FAIR      74  50  42 N16G24    30.07R                  
GRND FRKS AFB  FAIR      73  51  45 N13G22    30.08S                  
DEVILS LAKE    FAIR      69  48  47 N15       30.13S                  
$$
 
NDZ022-023-025-028>030-036>039-047>053-202000-
SOUTHEAST NORTH DAKOTA
  
CITY           SKY/WX    TMP DP  RH WIND       PRES   REMARKS
FARGO          FAIR      73  61  65 N16       30.05R                  
JAMESTOWN      FAIR      73  59  61 N10       30.10R                  
$$